Home > Weather > Rockford > Past weeks

Flag for USA Past Weather in Rockford, Illinois, USA — Yesterday and Last 2 Weeks

Now
77 °F

Clear.


Feels Like: 79 °F
Forecast: 65 / 86 °F
Wind: No wind

Location: Greater Rockford Airport

Current Time: Jul 25, 2016 at 11:48:00 PM

Latest Report: Jul 25, 2016 at 10:54 PM


Visibility: 10 mi

Pressure: 30.02 "Hg

Humidity: 64%

Dew Point: 64 °F

Location of RockfordLocation

Past Weather in Rockford — Graph

°F

Rockford Temperature Yesterday

Maximum temperature yesterday: 98 °F (at 1:55 PM)
Minimum temperature yesterday: 72 °F (at 12:54 AM)
Average temperature yesterday: 84 °F

High & Low Weather Summary for the Past Weeks

 TemperatureHumidityPressure
High98 °F (Jul 24, 1:55 PM)100% (Jul 16, 6:54 AM)30.25 "Hg (Jul 16, 6:54 AM)
Low55 °F (Jul 16, 5:54 AM)36% (Jul 14, 3:54 PM)29.73 "Hg (Jul 13, 6:54 PM)
Average77 °F74%30.00 "Hg
* Reported Jul 10 9:54 PM — Jul 25 9:54 PM, Rockford, Weather by CustomWeather, © 2016

Note: Actual official high and low records may vary slightly from our data, if they occured in-between our weather recording intervals... More about our weather records

Advertising

Rockford Weather History for the Previous 24 Hours

Scroll right to see more
 ConditionsComfort  
Time TempWeatherWind HumidityBarometerVisibility
9:54 PM
Mon, Jul 25
79 °FPassing clouds.6 mph58%30.02 "Hg10 mi
8:54 PM80 °FPassing clouds.6 mph56%30.00 "Hg10 mi
7:54 PM83 °FScattered clouds.6 mph55%29.99 "Hg10 mi
6:54 PM84 °FScattered clouds.6 mph51%29.99 "Hg10 mi
5:54 PM85 °FScattered clouds.6 mph50%29.98 "Hg10 mi
4:54 PM87 °FScattered clouds.6 mph46%29.99 "Hg10 mi
3:54 PM85 °FScattered clouds.8 mph50%29.99 "Hg10 mi
2:54 PM85 °FScattered clouds.8 mph50%30.01 "Hg10 mi
1:54 PM84 °FScattered clouds.8 mph48%30.01 "Hg10 mi
12:54 PM83 °FPassing clouds.10 mph51%30.01 "Hg10 mi
11:54 AM85 °FScattered clouds.12 mph51%30.01 "Hg10 mi
10:54 AM83 °FPartly sunny.12 mph55%30.01 "Hg10 mi
9:54 AM83 °FPartly sunny.7 mph55%30.01 "Hg10 mi
8:54 AM78 °FScattered clouds.7 mph69%30.02 "Hg10 mi
7:54 AM76 °FPassing clouds.6 mph72%30.00 "Hg10 mi
6:54 AM75 °FPassing clouds.6 mph74%30.00 "Hg10 mi
5:54 AM76 °FPassing clouds.No wind69%29.99 "Hg10 mi
4:54 AM73 °FPassing clouds.No wind71%29.98 "Hg10 mi
3:54 AM77 °FPassing clouds.No wind71%29.97 "Hg10 mi
2:54 AM75 °FPassing clouds.No wind74%29.97 "Hg10 mi
1:54 AM76 °FOvercast.No wind74%29.97 "Hg10 mi
12:54 AM77 °FOvercast.No wind74%29.96 "Hg10 mi
11:54 PM
Sun, Jul 24
77 °FOvercast.3 mph74%29.92 "Hg10 mi
Weather by CustomWeather, © 2016

See weather overviewHow to use our weather pages